Location: Allen Fire Department Station 4
(33.1073°N, 96.6988°W)
Time: 11:28:19
(UTC+00:00)

Cosmos 841 Rocket - Pass Details

Date: 03 December 2021
Orbit: 746 x 772 km, 74.0° (Epoch: 23 January)

Event Time Altitude Azimuth Distance (km) Brightness Sun altitude
Rises 23:42:07 0° 188° (S) 3,195 7.2 -5.1°
Reaches altitude 10° 23:44:29 10° 185° (S) 2,270 6.4 -5.6°
Maximum altitude 23:49:34 65° 104° (ESE) 825 3.5 -6.6°
Drops below altitude 10° 23:54:40 10° 23° (NNE) 2,270 5.5 -7.6°
Sets 23:57:02 0° 21° (NNE) 3,196 6.3 -8.0°
